Location: Unspecified
(50.7693°N, 0.0000°E)
Time: 22:46:58
(UTC+00:00)

SR - Pass Details

Date: 28 June 2019
Orbit: 581 x 875 km, 66.7° (Epoch: 15 July)

Event Time Altitude Azimuth Distance (km) Brightness Sun altitude
Rises 08:27:46 0° 323° (NW) 2,943 ? 40.4°
Reaches altitude 10° 08:30:31 10° 341° (NNW) 2,079 ? 40.9°
Maximum altitude 08:34:04 21° 30° (NNE) 1,550 ? 41.4°
Drops below altitude 10° 08:37:48 10° 78° (ENE) 2,215 ? 42.0°
Sets 08:40:50 0° 95° (E) 3,196 ? 42.5°
